Hourly Weather Ottaviano

Today, 28 July, Wednesday

Time Temperature Precipitation Wind Pressure Humidity
00:00 +29°C° 0 mm 1 mps 750 mmHg 33%
01:00 +29°C° 0 mm 1 mps 750 mmHg 33%
02:00 +28°C° 0 mm 1 mps 749 mmHg 33%
03:00 +28°C° 0 mm 1 mps 749 mmHg 33%
04:00 +27°C° 0 mm 1 mps 749 mmHg 33%
05:00 +29°C° 0 mm 1 mps 749 mmHg 30%
06:00 +30°C° 0 mm 1 mps 749 mmHg 27%
07:00 +30°C° 0 mm 0 mps 749 mmHg 24%
08:00 +34°C° 0 mm 1 mps 749 mmHg 22%
09:00 +37°C° 0 mm 2 mps 749 mmHg 20%
10:00 +39°C° 0 mm 2 mps 749 mmHg 17%
11:00 +39°C° 0 mm 3 mps 749 mmHg 18%
12:00 +39°C° 0 mm 3 mps 749 mmHg 18%
13:00 +41°C° 0 mm 4 mps 749 mmHg 17%
14:00 +41°C° 0 mm 4 mps 749 mmHg 18%
15:00 +39°C° 0 mm 3 mps 749 mmHg 19%
16:00 +39°C° 0 mm 3 mps 749 mmHg 20%
17:00 +37°C° 0 mm 3 mps 749 mmHg 23%
18:00 +36°C° 0 mm 2 mps 749 mmHg 26%
19:00 +34°C° 0 mm 2 mps 749 mmHg 29%
20:00 +32°C° 0 mm 1 mps 749 mmHg 32%
21:00 +31°C° 0 mm 1 mps 749 mmHg 34%
22:00 +28°C° 0 mm 0 mps 749 mmHg 37%
23:00 +29°C° 0 mm 1 mps 749 mmHg 38%

Tomorrow, 29 July, Thursday

Time Temperature Precipitation Wind Pressure Humidity
00:00 +29°C° 0 mm 1 mps 749 mmHg 38%
01:00 +28°C° 0 mm 1 mps 749 mmHg 39%
02:00 +28°C° 0 mm 1 mps 749 mmHg 40%
03:00 +26°C° 0 mm 0 mps 748 mmHg 40%
04:00 +25°C° 0 mm 0 mps 748 mmHg 41%
05:00 +27°C° 0 mm 0 mps 748 mmHg 38%
06:00 +28°C° 0 mm 0 mps 749 mmHg 35%
07:00 +29°C° 0 mm 0 mps 749 mmHg 31%
08:00 +33°C° 0 mm 1 mps 749 mmHg 27%
09:00 +35°C° 0 mm 1 mps 749 mmHg 23%
10:00 +38°C° 0 mm 2 mps 749 mmHg 19%
11:00 +38°C° 0 mm 3 mps 749 mmHg 18%
12:00 +39°C° 0 mm 3 mps 749 mmHg 18%
13:00 +41°C° 0 mm 4 mps 748 mmHg 17%
14:00 +39°C° 0 mm 3 mps 748 mmHg 18%
15:00 +39°C° 0 mm 3 mps 748 mmHg 18%
16:00 +38°C° 0 mm 3 mps 748 mmHg 19%
17:00 +37°C° 0 mm 2 mps 748 mmHg 22%
18:00 +35°C° 0 mm 2 mps 748 mmHg 24%
19:00 +33°C° 0 mm 1 mps 748 mmHg 26%
20:00 +32°C° 0 mm 1 mps 748 mmHg 28%
21:00 +31°C° 0 mm 1 mps 748 mmHg 31%
22:00 +29°C° 0 mm 1 mps 748 mmHg 33%
23:00 +29°C° 0 mm 1 mps 748 mmHg 35%

Day after tomorrow, 30 July, Friday

Time Temperature Precipitation Wind Pressure Humidity
00:00 +28°C° 0 mm 1 mps 747 mmHg 37%
01:00 +28°C° 0 mm 1 mps 747 mmHg 39%
02:00 +27°C° 0 mm 1 mps 747 mmHg 40%
03:00 +27°C° 0 mm 1 mps 747 mmHg 42%
04:00 +26°C° 0 mm 1 mps 747 mmHg 44%
05:00 +28°C° 0 mm 1 mps 747 mmHg 41%
06:00 +29°C° 0 mm 1 mps 747 mmHg 38%
07:00 +30°C° 0 mm 1 mps 747 mmHg 36%
08:00 +32°C° 0 mm 1 mps 747 mmHg 32%
09:00 +35°C° 0 mm 2 mps 747 mmHg 28%
10:00 +37°C° 0 mm 2 mps 747 mmHg 25%
11:00 +37°C° 0 mm 3 mps 747 mmHg 24%
12:00 +38°C° 0 mm 3 mps 747 mmHg 24%
13:00 +38°C° 0 mm 4 mps 747 mmHg 23%
14:00 +38°C° 0 mm 3 mps 746 mmHg 24%
15:00 +38°C° 0 mm 3 mps 746 mmHg 25%
16:00 +37°C° 0 mm 3 mps 746 mmHg 26%
17:00 +36°C° 0 mm 2 mps 746 mmHg 30%
18:00 +34°C° 0 mm 2 mps 746 mmHg 35%
19:00 +32°C° 0 mm 1 mps 746 mmHg 39%
20:00 +31°C° 0 mm 1 mps 746 mmHg 42%
21:00 +30°C° 0 mm 1 mps 746 mmHg 45%
22:00 +29°C° 0 mm 1 mps 746 mmHg 48%
23:00 +28°C° 0 mm 1 mps 746 mmHg 51%

31 July, Saturday

Time Temperature Precipitation Wind Pressure Humidity
00:00 +28°C° 0 mm 1 mps 746 mmHg 53%
01:00 +25°C° 0 mm 0 mps 746 mmHg 56%
02:00 +27°C° 0 mm 1 mps 746 mmHg 56%
03:00 +27°C° 0 mm 1 mps 746 mmHg 56%
04:00 +26°C° 0 mm 1 mps 745 mmHg 56%
05:00 +27°C° 0 mm 1 mps 746 mmHg 53%
06:00 +28°C° 0 mm 1 mps 746 mmHg 49%
07:00 +30°C° 0 mm 1 mps 746 mmHg 46%
08:00 +32°C° 0 mm 1 mps 746 mmHg 39%
09:00 +35°C° 0 mm 2 mps 746 mmHg 33%
10:00 +37°C° 0 mm 2 mps 746 mmHg 26%
11:00 +37°C° 0 mm 3 mps 746 mmHg 25%
12:00 +38°C° 0 mm 3 mps 746 mmHg 24%
13:00 +38°C° 0 mm 4 mps 746 mmHg 23%
14:00 +38°C° 0 mm 3 mps 745 mmHg 24%
15:00 +38°C° 0 mm 3 mps 745 mmHg 24%
16:00 +37°C° 0 mm 3 mps 745 mmHg 25%
17:00 +36°C° 0 mm 2 mps 745 mmHg 29%
18:00 +34°C° 0 mm 2 mps 745 mmHg 33%
19:00 +32°C° 0 mm 1 mps 745 mmHg 38%
20:00 +31°C° 0 mm 1 mps 745 mmHg 40%
21:00 +30°C° 0 mm 1 mps 746 mmHg 42%
22:00 +29°C° 0 mm 1 mps 746 mmHg 44%
23:00 +29°C° 0 mm 1 mps 746 mmHg 45%

1 August, Sunday

Time Temperature Precipitation Wind Pressure Humidity
00:00 +28°C° 0 mm 1 mps 746 mmHg 46%
01:00 +28°C° 0 mm 1 mps 746 mmHg 46%
02:00 +27°C° 0 mm 2 mps 745 mmHg 47%
03:00 +27°C° 0 mm 2 mps 745 mmHg 48%
04:00 +27°C° 0 mm 3 mps 744 mmHg 49%
05:00 +28°C° 0 mm 2 mps 745 mmHg 45%
06:00 +29°C° 0 mm 1 mps 745 mmHg 41%
07:00 +31°C° 0 mm 1 mps 745 mmHg 37%
08:00 +33°C° 0 mm 1 mps 745 mmHg 33%
09:00 +36°C° 0 mm 2 mps 745 mmHg 28%
10:00 +38°C° 0 mm 3 mps 745 mmHg 23%
11:00 +38°C° 0 mm 3 mps 745 mmHg 22%
12:00 +39°C° 0 mm 3 mps 745 mmHg 22%
13:00 +40°C° 0 mm 3 mps 744 mmHg 21%
14:00 +40°C° 0 mm 3 mps 744 mmHg 21%
15:00 +39°C° 0 mm 3 mps 744 mmHg 21%
16:00 +39°C° 0 mm 3 mps 744 mmHg 22%
17:00 +37°C° 0 mm 3 mps 744 mmHg 29%
18:00 +35°C° 0 mm 2 mps 745 mmHg 36%
19:00 +31°C° 0 mm 2 mps 745 mmHg 43%
20:00 +30°C° 0 mm 2 mps 745 mmHg 49%
21:00 +29°C° 0 mm 2 mps 745 mmHg 55%
22:00 +28°C° 0 mm 2 mps 746 mmHg 62%
23:00 +28°C° 0 mm 2 mps 746 mmHg 65%

2 August, Monday

Time Temperature Precipitation Wind Pressure Humidity
00:00 +27°C° 0 mm 2 mps 746 mmHg 68%
01:00 +27°C° 0 mm 2 mps 746 mmHg 71%
02:00 +26°C° 0 mm 2 mps 746 mmHg 72%
03:00 +26°C° 0 mm 2 mps 746 mmHg 73%
04:00 +25°C° 0 mm 1 mps 746 mmHg 74%
05:00 +26°C° 0 mm 2 mps 747 mmHg 68%
06:00 +27°C° 0 mm 2 mps 747 mmHg 61%
07:00 +28°C° 0 mm 2 mps 747 mmHg 54%
08:00 +30°C° 0 mm 3 mps 748 mmHg 46%
09:00 +31°C° 0 mm 3 mps 748 mmHg 37%
10:00 +34°C° 0 mm 4 mps 748 mmHg 28%
11:00 +34°C° 0 mm 4 mps 748 mmHg 26%
12:00 +35°C° 0 mm 4 mps 748 mmHg 23%
13:00 +35°C° 0 mm 5 mps 748 mmHg 21%
14:00 +35°C° 0 mm 4 mps 748 mmHg 24%
15:00 +34°C° 0 mm 4 mps 748 mmHg 26%
16:00 +34°C° 0 mm 4 mps 748 mmHg 28%
17:00 +32°C° 0 mm 4 mps 748 mmHg 34%
18:00 +30°C° 0 mm 3 mps 748 mmHg 41%
19:00 +28°C° 0 mm 2 mps 748 mmHg 47%
20:00 +27°C° 0 mm 2 mps 749 mmHg 51%
21:00 +26°C° 0 mm 2 mps 749 mmHg 56%
22:00 +25°C° 0 mm 1 mps 749 mmHg 61%
23:00 +25°C° 0 mm 1 mps 749 mmHg 63%
Show more